Regional Weather Roundup
Issued by NWS Sterling, VA

Home | Current Version | Previous Version | Graphics & Text | Print | Product List | Glossary On
Versions: 1 2 3 4 5 6 7 8 9 10 11 12 13 14 15 16 17 18 19 20 21 22 23 24 25 26 27 28 29 30 31 32 33 34 35 36 37 38 39 40 41 42 43 44 45 46 47 48 49 50
000
ASUS41 KLWX 152110
RWRLWX

REGIONAL WEATHER ROUNDUP
NATIONAL WEATHER SERVICE BALTIMORE MD/WASHINGTON DC
500 PM EDT MON SEP 15 2014

Note: "FAIR" indicates few or no clouds below 12,000 feet
with no significant weather and/or obstructions to visibility.
 TC=TEMPERATURE CELSIUS

 * =Non NWS site. Station does not report precipitation (e.g. rain,
    snow, etc.), thunder, or fog.

DCZ001-MDZ009-015-VAZ040>042-051-053>054-152200-
WASHINGTON METRO

CITY           SKY/WX    TMP DP  RH WIND       PRES   REMARKS
WASHINGTON NAT PTSUNNY   76  51  41 S8        30.13F
DULLES         PTSUNNY   72  51  47 SW3       30.13F
ANDREWS AFB    FAIR      73  54  50 SW7       30.13F
QUANTICO       FAIR      73  53  49 CALM      30.13F
COLLEGE PARK*  FAIR      73  52  46 S3        30.13F
LEESBURG*      FAIR      73  54  49 SW3       30.14F
MANASSAS*      MOSUNNY   73  55  53 S7        30.13F
GAITHERSBURG*  FAIR      72  52  49 S5        30.17S

$$

MDZ006>007-011-014-152200-
BALTIMORE METRO

CITY           SKY/WX    TMP DP  RH WIND       PRES   REMARKS
BWI AIRPORT    PTSUNNY   71  52  50 SE5       30.13F
MD SCIENCE CTR   N/A     71  51  49 MISG      30.14F
MARTIN STATE   MOSUNNY   72  52  49 SE6       30.15F
ANNAPOLIS      FAIR      69  52  54 SE7       30.14F
FORT MEADE*    FAIR      70  54  56 CALM      30.15F

$$

MDZ012-015-019>023-152200-
MARYLAND EASTERN SHORE

CITY           SKY/WX    TMP DP  RH WIND       PRES   REMARKS
OCEAN CITY     FAIR      70  51  51 E6        30.15S
SALISBURY      SUNNY    N/A N/A N/A MISG      30.14
BAY BRIDGE AP*   N/A     72  46  40 CALM      30.15S
CAMBRIDGE*     FAIR      72  50  46 CALM      30.14F
EASTON*        MOSUNNY   73  54  49 NW6       30.18S

$$

MDZ017>025-152200-
SOUTHERN MARYLAND

CITY           SKY/WX    TMP DP  RH WIND       PRES   REMARKS
PATUXENT RIVER PTSUNNY   71  53  52 SE8       30.14F
ST INIGOES     FAIR      72  55  55 S6        30.14F
LEONARDTOWN*   FAIR      70  54  56 E6        30.15F

$$

MDZ003>005-152200-
NORTH CENTRAL MARYLAND

CITY           SKY/WX    TMP DP  RH WIND       PRES   REMARKS
FREDERICK*     SUNNY     75  52  43 CALM      30.16F
HAGERSTOWN APT FAIR      70  47  43 S6        30.13F
WESTMINSTER*   FAIR      70  50  49 S8        30.14F

$$

MDZ501>502-152200-
WESTERN MARYLAND

CITY           SKY/WX    TMP DP  RH WIND       PRES   REMARKS
OAKLAND*       FAIR      63  36  36 S10       30.16F
CUMBERLAND*    FAIR      77  48  36 CALM      30.15F

$$

VAZ025>031-152200-
SHENANDOAH VALLEY

CITY           SKY/WX    TMP DP  RH WIND       PRES   REMARKS
WINCHESTER*    FAIR      73  52  46 SE6       30.12F
STAUNTON*      FAIR      74  55  51 S9        30.14S

$$

WVZ021-048>050-054>055-152200-
EASTERN WEST VIRGINIA PANHANDLE

CITY           SKY/WX    TMP DP  RH WIND       PRES   REMARKS
MARTINSBURG    FAIR      73  48  41 E6        30.13F
PETERSBURG*    FAIR      76  50  39 SE6       30.11S

$$

VAZ036>039-050-152200-
CENTRAL FOOTHILLS

CITY           SKY/WX    TMP DP  RH WIND       PRES   REMARKS
CHARLOTTESVILL PTSUNNY   73  55  53 S3        30.12F
ORANGE*        FAIR      73  55  53 SE3       30.14F

$$

VAZ055>057-152200-
NORTH AND CENTRAL PIEDMONT

CITY           SKY/WX    TMP DP  RH WIND       PRES   REMARKS
FREDERICKSBRG* FAIR      77  55  45 S6        30.12F
STAFFORD*      FAIR      75  55  50 CALM      30.16F

$$

NCZ024-NYZ072-PAZ021-071-VAZ022-071-152200-
OTHER REGIONAL OBSERVATIONS

CITY           SKY/WX    TMP DP  RH WIND       PRES   REMARKS
NEW YORK CITY  FAIR      69  42  37 CALM      30.15S
PHILADELPHIA   FAIR      71  46  40 S6        30.13F
PITTSBURGH     PTSUNNY   67  46  47 S9        30.10F
ROANOKE        CLOUDY    73  62  68 SE8       30.15S
RICHMOND       CLOUDY    75  57  53 S12       30.13F
RALEIGH        CLOUDY    72  63  73 S6        30.15S

$$

ANZ530>537-152200-
MARINE OBSERVATIONS

STATION/POSITION TIME  TEMP    WIND        PRES
                       AIR SEA DIR/SP/G
                 (UTC) (F)     (DEG/KT/KT) (MB)
THOMAS PT LIGHT  2100   69 75  150/  3/  3 1021.6F
BALT KEY BRIDGE  2100   68     120/  6/  9 1020.3F
COVE POINT       2100   69     170/  6/  8 1020.6F
LEWISETTA        2100   70 75  120/  8/ 10 1020.3F
SOLOMONS ISLAND  2100      77                N/A
PINEY POINT      2100          170/ 10/ 11   N/A

$$




USA.gov is the U.S. government's official web portal to all federal, state and local government web resources and services.